Location: ??
(34.9170°N, 135.5016°E)
Time: 18:18:56
(UTC+00:00)

SL-27 R/B - Pass Details

Date: 29 October 2020
Orbit: 419 x 469 km, 74.7° (Epoch: 29 November)

Event Time Altitude Azimuth Distance (km) Brightness Sun altitude
Rises 20:20:49 0° 195° (SSW) 2,479 6.1 -12.1°
Reaches altitude 10° 20:22:54 10° 195° (SSW) 1,613 5.1 -11.6°
Maximum altitude 20:26:28 88° 114° (ESE) 474 2.5 -10.9°
Drops below altitude 10° 20:30:04 10° 17° (NNE) 1,634 5.3 -10.2°
Sets 20:32:11 0° 17° (NNE) 2,515 6.3 -9.8°
